Home > Weather > Viersen > Past weeks

Flag for Germany Weather for the Past 2 Weeks in Viersen, North Rhine-Westphalia, Germany

Now
45 °F

Passing clouds.


Feels Like: 38 °F
Forecast: 40 / 49 °F
Wind: 13 mph from West

Location: Monchengladbach Airport

Current Time: Feb 8, 2016 at 4:06:17 PM

Latest Report: Feb 8, 2016 at 3:20 PM


Visibility: N/A

Pressure: 29.27 "Hg

Humidity: 87%

Dew point: 41 °F

Location of ViersenLocation

Historic Weather in Viersen — Graph

°F

Viersen Temperature Yesterday

Maximum temperature yesterday: 52 °F (at 7:50 AM)
Minimum temperature yesterday: 45 °F (at 6:50 PM)
Average temperature yesterday: 48 °F

High & Low Weather Summary for the Past Weeks

 TemperatureHumidityPressure
High57 °F (Jan 25, 1:50 PM)100% (Jan 24, 3:20 PM)30.39 "Hg (Jan 24, 3:20 PM)
Low37 °F (Jan 28, 6:50 PM)54% (Jan 28, 1:50 PM)29.24 "Hg (Feb 8, 12:20 PM)
Average47 °F89%29.99 "Hg
* Reported Jan 24 3:20 PM — Feb 8 3:01 PM, Viersen, Weather by CustomWeather, © 2016

Note: Actual official high and low records may vary slightly from our data, if they occured in-between our weather recording intervals... More about our weather records

Advertising

Viersen Weather History for the Previous 24 Hours

 ConditionsComfort  
Time TempWeatherWind HumidityBarometerVisibility
3:01 PM
Mon, Feb 8
50 °FRain showers. Passing clouds.14 mph67%29.27 "Hg2 mi
2:50 PM50 °FPassing clouds.14 mph67%29.27 "HgN/A
2:20 PM48 °FPassing clouds.16 mph76%29.27 "HgN/A
1:52 PM48 °FPassing clouds.16 mph76%29.27 "HgN/A
1:50 PM48 °FPassing clouds.15 mph82%29.27 "HgN/A
1:20 PM45 °FRain showers. Passing clouds.12 mph100%29.27 "HgN/A
12:50 PM50 °FPassing clouds.16 mph71%29.27 "HgN/A
12:20 PM50 °FPassing clouds.14 mph76%29.24 "HgN/A
11:50 AM48 °FPartly cloudy.15 mph82%29.27 "HgN/A
11:20 AM50 °FPartly cloudy.14 mph82%29.27 "HgN/A
10:50 AM50 °FPartly cloudy.14 mph82%29.27 "HgN/A
10:20 AM48 °FPartly cloudy.16 mph94%29.27 "HgN/A
9:50 AM46 °FPassing clouds.16 mph100%29.27 "HgN/A
9:20 AM48 °FSprinkles. Partly cloudy.15 mph87%29.27 "Hg5 mi
8:50 AM48 °FRain showers. Partly cloudy.17 mph94%29.27 "Hg4 mi
8:20 AM48 °FRain showers. Broken clouds.18 mph94%29.27 "Hg5 mi
7:50 AM48 °FBroken clouds.18 mph94%29.27 "HgN/A
7:20 AM48 °FRain showers. Broken clouds.20 mph100%29.27 "Hg5 mi
7:50 PM
Sun, Feb 7
46 °FCool.12 mph66%29.62 "HgN/A
7:20 PM45 °FQuite cool.7 mph76%29.62 "HgN/A
6:50 PM45 °FQuite cool.6 mph71%29.62 "HgN/A
6:20 PM46 °FPassing clouds.7 mph71%29.62 "HgN/A
5:50 PM46 °FPassing clouds.9 mph66%29.62 "HgN/A
5:20 PM48 °FPassing clouds.10 mph62%29.59 "HgN/A
4:50 PM48 °FPassing clouds.9 mph62%29.59 "HgN/A
4:20 PM50 °FPassing clouds.16 mph58%29.59 "HgN/A
Weather by CustomWeather, © 2016

See weather overviewHow to use our weather pages